"Pseudo-MPEC" for P11DTMg

Created 2023 Mar 27 13:22:10 UT using Find_Orb

Click here for an explanation of pseudo-MPECs

 
 Astrometry: 
     P11DTMg 0C2023 03 20JGYootpYC(P%1\Dft#viuyT=_.8k?$e4t:^Sp'\G`G]_gWbdG^=!T12
     P11DTMg 0C2023 03 20U#cmu.c:3((-Bf;9GQ:.xwm@U/*VG!1$OIS]2GJ;O27oM*q$D%VvT12
     P11DTMg 0C2023 03 20Lv+5Za]\L_:U/Hmuo=jyO(nV2eZ1D7-Jg8`HSC^Y\x5EF(Apy1o)T12
     P11DTMg 0C2023 03 20mc_)@k'1R,xjlwi^0%7yK7[l-[WdK@I+#CP*T(j-r\aI%FY+7Y0NT12
     P11DTMg* C2023 03 25nV\O38m8X=C[:s@IU0VAstrometry'G=P=de.wu]kQsA?1hWj_U%F51
     P11DTMg  C2023 03 25(yI^dYe1Ppkredacted;nZWVW,98fwWxfhBKw!click%Z!Ne-]P8F51
     P11DTMg  C2023 03 25SA`gRx_0!QvRbhereNPpD(LIbMxZl_=vwKq]lJkc0F:`RV5q,+;hF51
     P11DTMg  C2023 03 251dP80*V(ZS-RkyVED?/D3owi*HOjc!'H:x3xT;YaH1,!AQ``DM0uF51
     P11DTMg  C2023 03 27p:CE*`=`B@@SxNn1ipvvK='KWBJ*RETFCTQ)qkKkkEDCslUcbQ9hF52
     P11DTMg  C2023 03 27o@9Lc1nce;,?F5k7;\\`[%4MforZQ6fj$5dqa'5LOxlD^ejs0[hmF52
     P11DTMg  C2023 03 27=ONw=!1nkw^I2uN)0TY.F#lfH?v].CU7qRTMcHr;explanation`F52

Station data:
(F51) Pan-STARRS 1, Haleakala  (N20.707234 W156.255910)  US/Hawaii.
   Observers J. Bulger, T. Lowe, A. Schultz, M. Willman. Measurers K.
   Chambers, S. Chastel, T. de Boer, L. Denneau, J. Fairlamb, H. Flewelling,
   M. Huber, C.-C. Lin, E. Magnier, Y. Ramanjooloo, R. Wainscoat, R. Weryk.
   1.8-m Ritchey-Chrétien + CCD.
(F52) Pan-STARRS 2, Haleakala  (N20.707382 W156.255910)  US/Hawaii.
   Observers J. Bulger, T. Dukes, T. Lowe, A. Schultz, M. Willman. Measurers
   K. Chambers, S. Chastel, T. de Boer, L. Denneau, J. Fairlamb, H.
   Flewelling, M. Huber, C.-C. Lin, E. Magnier, Y. Ramanjooloo, R. Wainscoat,
   R. Weryk. 1.8-m Ritchey-Chrétien + CCD.
(T12) Mauna Kea-UH/Tholen NEO Follow-Up (2.24-m)  (N19.822991 W155.469434)
   US/Hawaii.  Observers D. Fohring, D. Hung, Y. Ramanjooloo, Z. Claytor, D.
   J. Tholen. 2.24-m f/10.1 University of Hawaii reflector.

Orbital elements:  P11DTMg
   Perihelion 2023 Feb 21.52940 +/- 0.0252 TT = 12:42:20 (JD 2459997.02940)
Epoch 2023 Mar 27.0 TT = JDT 2460030.5   Earth MOID: 0.0383   Ma: 0.0259
M  24.42254933 +/- 0.055            (J2000 ecliptic)             AutoNEOCP
n   0.72967176 +/- 0.00112          Peri.  115.85612 +/- 0.038
a   1.22194321 +/- 0.00125          Node    35.99614 +/- 0.014
e   0.1597854 +/- 0.000714          Incl.    0.60208 +/- 0.0028
P   1.35/493.36d           H 27.56  G  0.15   U  8.2
q 1.02669445 +/- 0.000181    Q 1.41719197 +/- 0.00233
From 11 observations 2023 Mar. 20-27; mean residual 0".09
Residuals in arcseconds: 
230320 T12  .06+  .16-    230325 F51  .14-  .01-    230327 F52  .01-  .12+    
230320 T12  .08-  .03-    230325 F51  .06-  .07-    230327 F52  .06+  .12+    
230320 T12  .06+  .01+    230325 F51  .09+  .05-    230327 F52  .03+  .15-    
230320 T12  .03-  .18+    230325 F51  .01-  .01-    

Ephemerides (geocentric):
Date (UTC) HH   RA             Dec           delta  r     elong  mag " sig PA
---- --------  ------------   ------------  ------ ------ -----  --- --------
2023 03 27 13  12 12 04.984   +05 01 49.40  .05444 1.0517 172.0 21.9 .250  21
2023 03 27 14  12 12 10.750   +05 00 25.03  .05449 1.0517 172.0 21.9 .251  21
2023 03 27 15  12 12 16.506   +04 59 00.76  .05454 1.0518 172.0 21.9 .252  20
2023 03 27 16  12 12 22.254   +04 57 36.59  .05458 1.0518 172.0 21.9 .253  20
2023 03 27 17  12 12 27.992   +04 56 12.53  .05463 1.0519 172.0 21.9 .254  19
2023 03 27 18  12 12 33.722   +04 54 48.56  .05468 1.0520 172.0 22.0 .255  19
2023 03 27 19  12 12 39.443   +04 53 24.70  .05473 1.0520 172.0 22.0 .256  19
2023 03 27 20  12 12 45.155   +04 52 00.93  .05477 1.0521 172.0 22.0 .257  18
2023 03 27 21  12 12 50.858   +04 50 37.27  .05482 1.0521 172.0 22.0 .258  18
2023 03 27 22  12 12 56.553   +04 49 13.72  .05487 1.0522 172.0 22.0 .259  17
2023 03 27 23  12 13 02.238   +04 47 50.26  .05492 1.0523 172.0 22.0 .260  17
2023 03 28 00  12 13 07.915   +04 46 26.90  .05497 1.0523 172.0 22.0 .261  17
2023 03 28 01  12 13 13.583   +04 45 03.65  .05501 1.0524 172.0 22.0 .262  16
2023 03 28 02  12 13 19.242   +04 43 40.50  .05506 1.0524 172.0 22.0 .263  16
2023 03 28 03  12 13 24.893   +04 42 17.45  .05511 1.0525 172.0 22.0 .264  16
2023 03 28 04  12 13 30.534   +04 40 54.50  .05516 1.0526 172.0 22.0 .265  15
2023 03 28 05  12 13 36.167   +04 39 31.65  .05521 1.0526 172.0 22.0 .266  15
2023 03 28 06  12 13 41.792   +04 38 08.90  .05526 1.0527 172.0 22.0 .268  14
2023 03 28 07  12 13 47.407   +04 36 46.26  .05531 1.0527 172.0 22.0 .269  14
2023 03 28 08  12 13 53.014   +04 35 23.71  .05535 1.0528 172.0 22.0 .270  14
2023 03 28 09  12 13 58.613   +04 34 01.27  .05540 1.0529 172.0 22.0 .271  13
2023 03 28 10  12 14 04.202   +04 32 38.93  .05545 1.0529 172.0 22.0 .272  13
2023 03 28 11  12 14 09.783   +04 31 16.69  .05550 1.0530 172.0 22.0 .274  13
2023 03 28 12  12 14 15.356   +04 29 54.55  .05555 1.0530 172.0 22.0 .275  12
2023 03 28 13  12 14 20.920   +04 28 32.51  .05560 1.0531 172.0 22.0 .276  12
2023 03 28 14  12 14 26.475   +04 27 10.58  .05565 1.0532 172.0 22.0 .277  12
2023 03 28 15  12 14 32.022   +04 25 48.74  .05570 1.0532 172.0 22.0 .279  11
2023 03 28 16  12 14 37.560   +04 24 27.01  .05575 1.0533 172.0 22.0 .280  11
2023 03 28 17  12 14 43.090   +04 23 05.37  .05580 1.0533 172.0 22.0 .281  11
2023 03 28 18  12 14 48.611   +04 21 43.84  .05585 1.0534 172.0 22.0 .282  10
2023 03 28 19  12 14 54.124   +04 20 22.41  .05589 1.0535 172.0 22.0 .284  10
2023 03 28 20  12 14 59.628   +04 19 01.08  .05594 1.0535 172.0 22.0 .285  10
2023 03 28 21  12 15 05.124   +04 17 39.85  .05599 1.0536 172.0 22.0 .286   9
2023 03 28 22  12 15 10.612   +04 16 18.72  .05604 1.0536 172.0 22.0 .288   9
2023 03 28 23  12 15 16.091   +04 14 57.69  .05609 1.0537 172.0 22.0 .289   9
2023 03 29 00  12 15 21.561   +04 13 36.77  .05614 1.0538 172.0 22.0 .290   9
2023 03 29 01  12 15 27.024   +04 12 15.94  .05619 1.0538 172.0 22.0 .292   8
2023 03 29 02  12 15 32.478   +04 10 55.22  .05624 1.0539 172.0 22.0 .293   8
2023 03 29 03  12 15 37.923   +04 09 34.59  .05629 1.0540 172.0 22.0 .295   8
2023 03 29 04  12 15 43.360   +04 08 14.07  .05634 1.0540 172.0 22.0 .296   7
2023 03 29 05  12 15 48.789   +04 06 53.64  .05639 1.0541 172.0 22.0 .297   7
2023 03 29 06  12 15 54.210   +04 05 33.32  .05644 1.0541 172.0 22.0 .299   7
2023 03 29 07  12 15 59.622   +04 04 13.10  .05649 1.0542 172.0 22.0 .300   7
2023 03 29 08  12 16 05.026   +04 02 52.97  .05654 1.0543 172.0 22.0 .302   6
2023 03 29 09  12 16 10.422   +04 01 32.95  .05659 1.0543 172.0 22.0 .303   6
2023 03 29 10  12 16 15.810   +04 00 13.03  .05665 1.0544 172.0 22.0 .305   6
2023 03 29 11  12 16 21.189   +03 58 53.21  .05670 1.0544 172.0 22.0 .306   6
2023 03 29 12  12 16 26.560   +03 57 33.49  .05675 1.0545 172.0 22.0 .307   5